Location: Delettes
(50.6178°N, 2.2123°E)
Time: 20:40:20
(UTC+00:00)

STARLINK-38 - Pass Details

Date: 27 February 2020
Orbit: 529 x 530 km, 53.0° (Epoch: 03 April)

Event Time Altitude Azimuth Distance (km) Brightness Sun altitude
Rises 19:44:59 0° 285° (WNW) 2,670 8.6 -22.3°
Reaches altitude 10° 19:47:12 10° 288° (WNW) 1,779 7.3 -22.7°
Enters shadow 19:51:02 69° 346° (NNW) 571 3.7 -23.2°
